TimeCST,TemperatureF,Dew PointF,Humidity,Sea Level PressureIn,VisibilityMPH,Wind Direction,Wind SpeedMPH,Gust SpeedMPH,PrecipitationIn,Events,Conditions,WindDirDegrees,DateUTC
12:53 AM,43.0,32.0,65,30.25,10.0,WSW,3.5,-,N/A,,Clear,240,2013-11-10 06:53:00
1:53 AM,39.9,32.0,73,30.26,10.0,Calm,Calm,-,N/A,,Clear,0,2013-11-10 07:53:00
2:53 AM,37.9,32.0,79,30.27,10.0,Calm,Calm,-,N/A,,Clear,0,2013-11-10 08:53:00
3:53 AM,37.0,32.0,82,30.27,10.0,Calm,Calm,-,N/A,,Clear,0,2013-11-10 09:53:00
4:53 AM,36.0,32.0,86,30.29,10.0,Calm,Calm,-,N/A,,Clear,0,2013-11-10 10:53:00
5:53 AM,35.1,32.0,89,30.30,10.0,Calm,Calm,-,N/A,,Clear,0,2013-11-10 11:53:00
6:53 AM,36.0,33.1,89,30.32,10.0,Calm,Calm,-,N/A,,Clear,0,2013-11-10 12:53:00
7:53 AM,48.0,37.9,68,30.33,10.0,Calm,Calm,-,N/A,,Clear,0,2013-11-10 13:53:00
8:53 AM,52.0,39.0,61,30.33,10.0,Calm,Calm,-,N/A,,Clear,0,2013-11-10 14:53:00
9:53 AM,55.9,39.0,53,30.33,10.0,NNE,4.6,-,N/A,,Clear,20,2013-11-10 15:53:00
10:53 AM,57.9,37.0,46,30.32,10.0,North,6.9,-,N/A,,Clear,360,2013-11-10 16:53:00
11:53 AM,61.0,33.1,35,30.29,10.0,NW,9.2,17.3,N/A,,Clear,320,2013-11-10 17:53:00
12:53 PM,61.0,28.0,29,30.27,10.0,NW,12.7,-,N/A,,Clear,320,2013-11-10 18:53:00
1:53 PM,61.0,28.9,30,30.27,10.0,WNW,10.4,-,N/A,,Clear,300,2013-11-10 19:53:00
2:53 PM,60.1,28.0,30,30.28,10.0,NNW,12.7,18.4,N/A,,Clear,340,2013-11-10 20:53:00
3:53 PM,57.9,28.0,32,30.29,10.0,NNW,9.2,-,N/A,,Clear,330,2013-11-10 21:53:00
4:53 PM,54.0,26.1,34,30.30,10.0,NW,6.9,-,N/A,,Clear,310,2013-11-10 22:53:00
5:53 PM,52.0,26.1,37,30.32,10.0,NNW,3.5,-,N/A,,Clear,330,2013-11-10 23:53:00
6:53 PM,48.9,24.1,38,30.32,10.0,North,3.5,-,N/A,,Clear,350,2013-11-11 00:53:00
7:53 PM,46.9,23.0,39,30.32,10.0,North,5.8,-,N/A,,Clear,350,2013-11-11 01:53:00
8:53 PM,43.0,23.0,45,30.33,10.0,Calm,Calm,-,N/A,,Clear,0,2013-11-11 02:53:00
9:53 PM,43.0,21.9,43,30.31,10.0,North,3.5,-,N/A,,Clear,10,2013-11-11 03:53:00
10:53 PM,39.9,21.9,49,30.31,10.0,North,3.5,-,N/A,,Clear,360,2013-11-11 04:53:00
11:53 PM,36.0,21.0,55,30.31,10.0,Calm,Calm,-,N/A,,Clear,0,2013-11-11 05:53:00